Flag for Norway Weather past 2 weeks in Kragerø, Norway

Now
28 °F

Chilly.


Feels Like: 28 °F
Forecast: 34 / 42 °F
Wind: 1 mph from West

Location: Jomfruland Fyr

Current Time: Jan 25, 2015 at 6:00:05 AM

Latest Report: Jan 25, 2015 at 4:00 AM


Visibility: N/A

Pressure: 29.99 "Hg

Humidity: 88%

Dew point: 25 °F

Location of KragerøLocation

Historic Weather in Kragerø — Graph

°F

Kragerø temperature yesterday

Maximum temperature yesterday: 40 °F (at 2:00 PM)
Minimum temperature yesterday: 33 °F (at 11:00 PM)
Average temperature yesterday: 37 °F

Past Weeks' High & Low Weather Summary

 TemperatureHumidityPressure
High46 °F (Jan 12, 3:00 PM)97% (Jan 20, 9:00 AM)30.26 "Hg (Jan 20, 9:00 AM)
Low20 °F (Jan 23, 9:00 AM)45% (Jan 11, 2:00 AM)28.47 "Hg (Jan 10, 5:00 PM)
Average36 °F82%29.54 "Hg
* Reported Jan 10 4:00 AM — Jan 25 4:00 AM, Kragerø, Weather by CustomWeather, © 2014

Note: Actual official high and low records may vary slightly from our data, if they occured in-between our weather recording intervals... More about our weather records

Advertising

Kragerø weather history for previous 24 hours

 ConditionsComfort  
Time TempWeatherWind HumidityBarometerVisibility
4:00 AM
Jan 25
28 °FChilly.1 mph88%29.99 "HgN/A
3:00 AM28 °FChilly.1 mph88%29.97 "HgN/A
2:00 AM30 °FChilly.2 mph86%29.95 "HgN/A
1:00 AM31 °FChilly.3 mph85%29.93 "HgN/A
12:00 AM31 °FChilly.2 mph88%29.91 "HgN/A
11:00 PM
Jan 24
33 °FChilly.5 mph83%29.89 "HgN/A
10:00 PM33 °FChilly.5 mph86%29.88 "HgN/A
9:00 PM34 °FChilly.5 mph86%29.85 "HgN/A
8:00 PM35 °FChilly.7 mph85%29.83 "HgN/A
7:00 PM36 °FChilly.6 mph86%29.82 "HgN/A
6:00 PM36 °FChilly.6 mph85%29.80 "HgN/A
5:00 PM37 °FChilly.7 mph83%29.78 "HgN/A
4:00 PM39 °FChilly.7 mph82%29.75 "HgN/A
3:00 PM40 °FChilly.6 mph80%29.73 "HgN/A
2:00 PM40 °FChilly.2 mph84%29.72 "HgN/A
1:00 PM38 °FChilly.2 mph88%29.71 "HgN/A
12:00 PM37 °FChilly.2 mph91%29.70 "HgN/A
11:00 AM36 °FChilly.5 mph92%29.68 "HgN/A
10:00 AM37 °FChilly.6 mph93%29.66 "HgN/A
9:00 AM39 °FChilly.13 mph92%29.64 "HgN/A
8:00 AM37 °FChilly.16 mph92%29.66 "HgN/A
7:00 AM37 °FChilly.15 mph92%29.66 "HgN/A
6:00 AM36 °FChilly.16 mph92%29.69 "HgN/A
Weather by CustomWeather, © 2014

See weather overviewHow to use our weather pages